Regional Weather Roundup
Issued by NWS

Home | Current Version | Previous Version | Text Only | Print | Product List | Glossary Off
Versions: 1 2 3 4 5 6 7 8 9 10 11 12 13 14 15 16 17 18 19 20 21 22 23 24 25 26 27 28 29 30 31 32 33 34 35 36 37 38 39 40 41 42 43 44 45 46 47 48 49 50

000
ASUS43 KLSX 090457
RWRMO

WEATHER SUMMARY FOR MISSOURI
NATIONAL WEATHER SERVICE SPRINGFIELD MO
1100 PM CST THU DEC 08 2016

NOTE: "FAIR" INDICATES FEW OR NO CLOUDS BELOW 12,000 FEET WITH NO
       SIGNIFICANT WEATHER AND/OR OBSTRUCTIONS TO VISIBILITY.
       CURRENT SKY AND/OR WEATHER CONDITIONS ARE NOT AVAILABLE FOR
       CHILLICOTHE AND FARMINGTON.

MOZ001>031-035>038-043-044-053-054-090600-
...NORTHERN AND WESTERN MISSOURI...

CITY           SKY/WX    TMP DP  RH WIND       PRES   REMARKS
KANSAS CTY INT CLEAR     17   8  67 W5        30.64S WCI  10
LEE`S SUMMIT   CLEAR     18  10  71 NW7       30.64S WCI   9
ST JOSEPH      CLEAR     16   9  74 CALM      30.66S
CHILLICOTHE      N/A     18   9  68 NW3       30.65R

$$
MOZ066>068-077>081-088>096-101>105-090600-
...SOUTHWEST MISSOURI...

CITY           SKY/WX    TMP DP  RH WIND       PRES   REMARKS
SPRINGFIELD    CLEAR     17  11  77 NW6       30.60S WCI   9
JOPLIN         CLEAR     18  13  80 NW3       30.67R

$$
MOZ032>034-039>042-045>050-055>058-069>072-090600-
...CENTRAL MISSOURI...

CITY           SKY/WX    TMP DP  RH WIND       PRES   REMARKS
COLUMBIA       NOT AVBL
JEFFERSON CITY CLEAR     19  11  70 NW5       30.64S WCI  12
ROLLA          CLEAR     17  11  77 W8        30.57S WCI   7
SEDALIA        CLEAR     18  10  71 W6        30.64S WCI  10
WARRENSBURG    CLEAR     19  10  68 W3        30.65S

$$
MOZ051-052-059>065-090600-
...EAST CENTRAL MISSOURI...

CITY           SKY/WX    TMP DP  RH WIND       PRES   REMARKS
ST LOUIS INTL  CLEAR     22  11  62 W9        30.59S WCI  12

$$
MOZ072>076-082>087-097>100-106>115-090600-
...SOUTH CENTRAL AND SOUTHEAST MISSOURI...

CITY           SKY/WX    TMP DP  RH WIND       PRES   REMARKS
CAPE GIRARDEAU CLEAR     24  13  62 NW6       30.60R WCI  17
POPLAR BLUFF   CLEAR     26  15  63 NW8       30.61R WCI  18
WEST PLAINS    CLEAR     21  13  71 N8        30.58F WCI  11

$$


USA.gov is the U.S. government's official web portal to all federal, state and local government web resources and services.